Cairo, Egypt

4:27 PM EET on September 19, 2017 (GMT +0200)
Cairo International Airport

Weather History for HECA - October, 2013

Change the Weather History Date:

Friday, October 18, 2013

  Actual Average Record
Temperature  
Mean Temperature 73 °F -  
Max Temperature 83 °F 78 °F 95 °F (2010)
Min Temperature 63 °F 60 °F 63 °F (2013)
Cooling Degree Days 8    
Growing Degree Days 23 (Base 50)    
Moisture  
Dew Point 55 °F    
Average Humidity 49    
Maximum Humidity 78    
Minimum Humidity 19    
Precipitation  
Precipitation 0.00 in 0.00 in - ()
Sea Level Pressure  
Sea Level Pressure 29.92 in    
Wind  
Wind Speed 8 mph ()    
Max Wind Speed 23 mph    
Max Gust Speed -    
Visibility 6.1 miles    
Events      
Averages and records for this station are not official NWS values.
T = Trace of Precipitation, MM = Missing Value Source: Averaged Metar Reports

Daily Weather History Graph

Daily Weather History Graph

Search for Another Location

Airport or City:

Trip Planner

Search our weather history database for the weather conditions in past years. The results will help you decide how hot, cold, wet, or windy it might be!

Date:

Astronomy

Oct. 18, 2013 Rise Set
Actual Time 5:58 AM EET 5:20 PM EET
Civil Twilight 5:34 AM EET 5:44 PM EET
Nautical Twilight 5:06 AM EET 6:12 PM EET
Astronomical Twilight 4:38 AM EET 6:40 PM EET
Moon 4:58 PM EET (10/18) 5:14 AM EET (10/18)
Length of Visible Light 12h 10m
Length of Day
11h 22m
Full, 100% of the Moon is Illuminated
Oct 18
Full
Oct 19
Full
Oct 27
Last Quarter
Nov 3
New
Nov 10
First Quarter

Hourly Weather History & Observations

Time (EET) Temp. Heat Index Dew Point Humidity Pressure Visibility Wind Dir Wind Speed Gust Speed Precip Events Conditions
12:00 AM 78.8 °F - 44.6 °F 30% 29.83 in - SW 13.8 mph - N/A   Clear
12:30 AM 77.0 °F - 46.4 °F 34% 29.83 in - SW 13.8 mph - N/A   Clear
1:00 AM 77.0 °F - 51.8 °F 41% 29.83 in - WSW 6.9 mph - N/A   Clear
1:30 AM 75.2 °F - 53.6 °F 47% 29.83 in - WSW 4.6 mph - N/A   Clear
2:00 AM 75 °F - 58 °F 44% 29.84 in 6 mi West 3.5 mph - -  
2:00 AM 75.2 °F - 57.2 °F 53% 29.83 in - West 3.5 mph - N/A   Clear
2:30 AM 75.2 °F - 57.2 °F 53% 29.83 in - West 3.5 mph - N/A   Clear
3:00 AM 73.4 °F - 57.2 °F 57% 29.83 in - SSW 3.5 mph - N/A   Clear
3:30 AM 73.4 °F - 59.0 °F 61% 29.86 in - Calm Calm - N/A   Clear
4:00 AM 73.4 °F - 62.6 °F 69% 29.86 in - West 5.8 mph - N/A   Clear
4:30 AM 73.4 °F - 62.6 °F 69% 29.86 in - West 6.9 mph - N/A   Clear
5:00 AM 73.4 °F - 64.4 °F 73% 29.86 in - West 4.6 mph - N/A   Clear
5:30 AM 71.6 °F - 64.4 °F 78% 29.86 in - West 6.9 mph - N/A   Clear
6:00 AM 71.6 °F - 62.6 °F 73% 29.86 in - West 6.9 mph - N/A   Clear
6:30 AM 71.6 °F - 62.6 °F 73% 29.89 in - West 6.9 mph - N/A   Clear
7:00 AM 73.4 °F - 64.4 °F 73% 29.89 in - WSW 5.8 mph - N/A   Clear
7:30 AM 73.4 °F - 62.6 °F 69% 29.92 in - West 6.9 mph - N/A   Clear
8:00 AM 73 °F - 62 °F 61% 29.92 in 6 mi West 8.1 mph - -   Partly Cloudy
8:00 AM 73.4 °F - 62.6 °F 69% 29.92 in - West 8.1 mph - N/A   Clear
8:30 AM 75.2 °F - 62.6 °F 65% 29.92 in - West 8.1 mph - N/A   Clear
9:00 AM 75.2 °F - 62.6 °F 65% 29.92 in - West 10.4 mph - N/A   Clear
9:30 AM 77.0 °F - 60.8 °F 57% 29.95 in 6.2 mi WSW 9.2 mph - N/A   Scattered Clouds
10:00 AM 77.0 °F - 60.8 °F 57% 29.95 in 6.2 mi WSW 9.2 mph - N/A   Partly Cloudy
10:30 AM 78.8 °F - 59.0 °F 51% 29.95 in 6.2 mi WSW 10.4 mph - N/A   Partly Cloudy
11:00 AM 78.8 °F - 60.8 °F 54% 29.92 in 6.2 mi WSW 9.2 mph - N/A   Partly Cloudy
11:30 AM 80.6 °F 80.8 °F 57.2 °F 45% 29.92 in 6.2 mi West 12.7 mph - N/A   Partly Cloudy
12:00 PM 80.6 °F 80.8 °F 57.2 °F 45% 29.92 in 6.2 mi West 12.7 mph - N/A   Partly Cloudy
12:30 PM 82.4 °F 81.4 °F 53.6 °F 37% 29.92 in 6.2 mi West 16.1 mph - N/A   Partly Cloudy
1:00 PM 82.4 °F - 50.0 °F 32% 29.92 in 6.2 mi WSW 23.0 mph - N/A   Partly Cloudy
1:30 PM 82.4 °F - 50.0 °F 32% 29.92 in 6.2 mi West 17.3 mph - N/A   Partly Cloudy
2:00 PM 83 °F - 48 °F 19% 29.91 in 6 mi West 16.1 mph - -   Scattered Clouds
2:00 PM 82.4 °F - 48.2 °F 30% 29.92 in 6.2 mi West 16.1 mph - N/A   Partly Cloudy
2:30 PM 82.4 °F - 48.2 °F 30% 29.92 in 6.2 mi West 16.1 mph - N/A   Partly Cloudy
3:00 PM 82.4 °F - 48.2 °F 30% 29.92 in - West 15.0 mph - N/A   Clear
3:30 PM 82.4 °F - 48.2 °F 30% 29.92 in - West 15.0 mph - N/A   Clear
4:00 PM 82.4 °F - 44.6 °F 26% 29.92 in - West 16.1 mph - N/A   Clear
4:30 PM 82.4 °F - 44.6 °F 26% 29.92 in - West 16.1 mph - N/A   Clear
5:00 PM 80.6 °F - 44.6 °F 28% 29.92 in - West 13.8 mph - N/A   Clear
5:30 PM 78.8 °F - 46.4 °F 32% 29.95 in - NW 10.4 mph - N/A   Clear
6:00 PM 78.8 °F - 46.4 °F 32% 29.95 in - WNW 10.4 mph - N/A   Clear
6:30 PM 78.8 °F - 46.4 °F 32% 29.95 in - WNW 10.4 mph - N/A   Clear
7:00 PM 77.0 °F - 51.8 °F 41% 29.98 in - NW 11.5 mph - N/A   Clear
7:30 PM 75.2 °F - 53.6 °F 47% 29.98 in - NW 10.4 mph - N/A   Clear
8:00 PM 75 °F - 54 °F 37% 29.99 in 6 mi NW 9.2 mph - -  
8:00 PM 75.2 °F - 53.6 °F 47% 29.98 in - NW 9.2 mph - N/A   Clear
8:30 PM 75.2 °F - 53.6 °F 47% 30.01 in - NNW 5.8 mph - N/A   Clear
9:00 PM 75.2 °F - 53.6 °F 47% 30.01 in - NNW 3.5 mph - N/A   Clear
9:30 PM 75.2 °F - 53.6 °F 47% 30.01 in - NNW 3.5 mph - N/A   Clear
10:00 PM 73.4 °F - 55.4 °F 53% 30.01 in - NW 4.6 mph - N/A   Clear
10:30 PM 73.4 °F - 57.2 °F 57% 30.04 in - NNW 4.6 mph - N/A   Clear
11:00 PM 71.6 °F - 57.2 °F 60% 30.04 in - NW 5.8 mph - N/A   Clear
11:30 PM 71.6 °F - 57.2 °F 60% 30.04 in - NW 1.2 mph - N/A   Clear